Regional Weather Roundup
Issued by NWS Green Bay, WI

Home | Current Version | Previous Version | Text Only | Print | Product List | Glossary On
Versions: 1 2 3 4 5 6 7 8 9 10 11 12 13 14 15 16 17 18 19 20 21 22 23 24 25 26 27 28 29 30 31 32 33 34 35 36 37 38 39 40 41 42 43 44 45 46 47 48 49 50
000
ASUS43 KGRB 041559
RWRGRB

NORTH-CENTRAL AND NORTHEAST WISCONSIN REGIONAL WEATHER ROUNDUP
NATIONAL WEATHER SERVICE GREEN BAY WI
1000 AM CST WED MAR 04 2015

WIZ005-009-010>012-018-019-041700-
NORTH CENTRAL WISCONSIN

CITY           SKY/WX    TMP DP  RH WIND       PRES   REMARKS
IRONWOOD       MOSUNNY    0  -9  65 NW16      30.00S WCI -21
MANITOWISH WTR NOT AVBL
ARBOR VITAE    NOT AVBL
EAGLE RIVER    NOT AVBL
LAND O LAKES   NOT AVBL
RHINELANDER    PTSUNNY    1 -11  57 NW10      29.99S WCI -15
PHILLIPS       CLOUDY     0 -11  58 W8        30.03S WCI -14
ANTIGO         NOT AVBL
TOMAHAWK       NOT AVBL
MERRILL        NOT AVBL
$$

WIZ013-073-041700-
NORTHEAST WISCONSIN

CITY           SKY/WX    TMP DP  RH WIND       PRES   REMARKS
IRON MOUNTAIN  SUNNY      6  -8  52 W16G30    29.96R WCI -12
MARINETTE      SUNNY     10  -8  44 W12G17    30.01S WCI  -4
$$

WIZ017-030-035>037-045-041700-
CENTRAL WISCONSIN

CITY           SKY/WX    TMP DP  RH WIND       PRES   REMARKS
MEDFORD        NOT AVBL
WAUSAU         SUNNY      3  -7  63 W15       30.05S WCI -16
MOSINEE        MOSUNNY    3  -8  60 NW20G28   30.07R WCI -18
MARSHFIELD     SUNNY      4  -8  57 NW21      30.09R WCI -17
WISC RAPIDS    SUNNY      6  -7  54 W15       30.12R WCI -12
STEVENS POINT  NOT AVBL
WAUPACA        NOT AVBL
SHAWANO        NOT AVBL
CLINTONVILLE   SUNNY      9  -6  52 W15       30.07R WCI  -8
$$

WIZ038-039-048-051-041700-
FOX VALLEY

CITY           SKY/WX    TMP DP  RH WIND       PRES   REMARKS
NWS GREEN BAY  SUNNY      9  -5  53 W20G25    30.06S WCI -10
APPLETON       SUNNY      9  -6  52 W17       30.07R WCI -10
OSHKOSH        SUNNY     10  -3  55 W15G24    30.08R WCI  -7
FOND DU LAC    SUNNY     11  -2  56 W16       30.09R WCI  -6
$$

WIZ022-050-052-041700-
EAST CENTRAL WISCONSIN

CITY           SKY/WX    TMP DP  RH WIND       PRES   REMARKS
STURGEON BAY   SUNNY      9  -6  52 W16       30.04R WCI  -9
MANITOWOC      NOT AVBL
SHEBOYGAN      SUNNY     10  -3  55 NW14G26   30.06S WCI  -6
$$

LMZ563-521-522-541>543-041700-
LAKESHORE

STATION/POSITION TIME  TEMP    WIND        PRES    VSBY  WAVE
                       AIR SEA DIR/SP/G                  HT/PER
                 (UTC) (F)     (DEG/KT/KT) (MB)    (MI)  (FT/S)
SHEBOYGAN LKSHOR 1500   11     290/ 18/ 23 1019.4R
KEWAUNEE LKSHORE 1500   10     300/ 11/ 17 1016.4R
NORTHPORT PIER   1500   11     290/ 11/ 16 1016.6R
SISTER BAY LKSHO 1500   14     300/ 13/ 15   N/A
CHAMBERS ISLAND  1500   14     270/  6/ 10 1016.6R
MENOMINEE LKSHOR 1500    9     270/ 13     1017.2R
$$



USA.gov is the U.S. government's official web portal to all federal, state and local government web resources and services.